[[{"header":{"parameterUnit":"m.s-1","parameterCategory":1,"la1":30.2991,"la2":30.254,"lo1":-89.0895,"lo2":-89.0444,"dy":0.0017,"dx":0.0017,"nx":28,"ny":28,"refTime":"2024-03-26T03:00:00:Z","depth":0,"parameterNumber":2,"parameterNumberName":"U-component_of_WINDS"},"data":[0,0,0,0,0,0,0,0,0,0,0,0,0,0,0,0,0,0,0,0,0,0,0,0,0,0,0,0,0,0,0,0,0,0,0,0,0,0,0,0,0,0,0,0,0,0,0,0,0,0,0,0,0,0,0,0,0,0,-0.8323,-0.8323,0,-0.8304,-0.8303,-0.8303,-0.8312,-0.8312,-0.8313,-0.8313,-0.8292,-0.8291,-0.829,0,0,0,0,0,0,0,0,0,0,0,0,0,-0.8367,-0.8367,-0.8323,-0.8323,-0.8323,-0.8304,-0.8303,-0.8303,-0.8312,-0.8312,-0.8313,-0.8313,-0.8292,-0.8291,-0.829,0,0,0,0,0,0,0,0,0,0,0,0,0,-0.8348,-0.8366,-0.8323,-0.8325,-0.8325,-0.8304,-0.8303,-0.8303,-0.8312,-0.8312,-0.8313,-0.8314,-0.8293,-0.8291,-0.829,-0.8266,0,0,-0.8285,-0.8284,0,0,0,0,0,0,0,0,-0.8349,-0.8346,-0.8325,-0.8325,-0.8325,-0.8311,-0.8311,-0.8291,-0.8311,-0.8317,-0.8313,-0.8314,-0.8298,-0.8296,-0.829,-0.8265,-0.8264,-0.8285,-0.8284,-0.8283,-0.8283,0,0,0,0,0,0,0,-0.835,-0.8347,-0.8316,-0.8325,-0.8324,-0.8326,-0.8324,-0.8307,-0.8303,-0.8316,-0.8317,-0.8314,-0.8298,-0.8292,-0.829,-0.8264,-0.8285,-0.8284,-0.8283,-0.8282,-0.8217,-0.8216,0,0,0,0,0,0,-0.8352,-0.8348,-0.8316,-0.8315,-0.8339,-0.8325,-0.8323,-0.8315,-0.8303,-0.8303,-0.8314,-0.8315,-0.8294,-0.8292,-0.8289,-0.826,-0.8283,-0.8282,-0.8281,-0.8218,-0.8217,-0.8216,0,0,0,0,0,0,-0.8353,-0.8349,-0.8317,-0.8332,-0.8328,-0.8323,-0.8314,-0.8314,-0.8308,-0.8302,-0.8301,-0.8309,-0.8295,-0.8291,-0.8272,-0.8259,-0.8281,-0.828,-0.8219,-0.8217,-0.8216,-0.8201,0,0,0,0,0,0,-0.8354,-0.8349,-0.834,-0.8332,-0.8327,-0.83,-0.8313,-0.8313,-0.8306,-0.8307,-0.8297,-0.8296,-0.8295,-0.8274,-0.827,-0.8258,-0.8279,-0.822,-0.8218,-0.8217,-0.8203,-0.82,-0.8197,0,0,0,0,0,-0.8356,-0.8337,-0.834,-0.8336,-0.8316,-0.8299,-0.8296,-0.8296,-0.8305,-0.8295,-0.8291,-0.8296,-0.8262,-0.8272,-0.8268,-0.8255,-0.822,-0.8219,-0.8217,-0.8204,-0.82,-0.8197,0,0,0,0,0,0,-0.8344,-0.8336,-0.8339,-0.8317,-0.8309,-0.8301,-0.8289,-0.8292,-0.8281,-0.8283,-0.8283,-0.8281,-0.826,-0.8256,-0.8267,-0.8231,-0.8242,-0.8239,-0.8234,-0.823,-0.8228,-0.8229,-0.8277,0,0,0,0,0,-0.8339,-0.8326,-0.832,-0.8301,-0.8297,-0.8293,-0.8286,-0.8287,-0.8278,-0.8275,-0.8269,-0.826,-0.8247,-0.8239,-0.8227,-0.8203,-0.82,-0.8192,-0.8189,-0.8187,-0.8184,-0.817,-0.8166,-0.821,-0.821,-0.821,0,0,-0.8328,-0.8322,-0.8314,-0.8298,-0.8292,-0.8278,-0.829,-0.8276,-0.8265,-0.8272,-0.8253,-0.8249,-0.8239,-0.8217,-0.8207,-0.8212,-0.8171,-0.8184,-0.8182,-0.8181,-0.8168,-0.8164,-0.816,-0.8209,-0.8209,-0.8209,0,0,-0.8301,-0.8296,-0.8279,-0.8273,-0.8263,-0.8261,-0.8257,-0.8249,-0.8246,-0.8227,-0.8232,-0.8219,-0.8198,-0.819,-0.8183,-0.8154,-0.8158,-0.815,-0.8135,-0.8121,-0.8118,-0.8115,-0.8103,-0.8099,-0.8148,-0.8148,-0.8148,0,-0.8289,-0.8269,-0.827,-0.8255,-0.8247,-0.8254,-0.8236,-0.823,-0.8217,-0.8211,-0.8218,-0.8191,-0.8184,-0.816,-0.8153,-0.8148,-0.8143,-0.8151,-0.8118,-0.8115,-0.8112,-0.8101,-0.8097,-0.8147,-0.8147,-0.8147,-0.8147,0,-0.8254,-0.824,-0.8227,-0.8215,-0.8206,-0.819,-0.8188,-0.818,-0.8181,-0.8178,-0.8159,-0.8152,-0.8138,-0.8132,-0.8134,-0.8108,-0.8112,-0.8119,-0.813,-0.8107,-0.8097,-0.8093,-0.8145,-0.8146,-0.8146,-0.8146,0,0,-0.8218,-0.8207,-0.8202,-0.8196,-0.8186,-0.8175,-0.8159,-0.8146,-0.8138,-0.8129,-0.8115,-0.8097,-0.8103,-0.8095,-0.8096,-0.8084,-0.806,-0.8092,-0.8092,-0.8086,-0.8031,-0.8025,-0.802,-0.8063,-0.8063,-0.8062,-0.8031,0,-0.819,-0.8162,-0.8163,-0.8137,-0.8124,-0.8129,-0.8115,-0.8107,-0.8105,-0.8093,-0.809,-0.8076,-0.8085,-0.8081,-0.807,-0.8066,-0.8049,-0.8068,-0.805,-0.8049,-0.8051,-0.8015,-0.8009,-0.7981,-0.8028,-0.8027,-0.8026,0,-0.8153,-0.8143,-0.8115,-0.8107,-0.8102,-0.8089,-0.8077,-0.8066,-0.8057,-0.8056,-0.8047,-0.805,-0.8033,-0.8046,-0.8023,-0.8036,-0.8028,-0.8025,-0.8024,-0.8021,-0.8035,-0.8011,-0.7972,-0.7967,-0.802,-0.8021,-0.8021,0,-0.8129,-0.8108,-0.8089,-0.8084,-0.8074,-0.8065,-0.806,-0.8052,-0.8044,-0.8034,-0.8028,-0.8016,-0.8009,-0.7999,-0.7998,-0.8008,-0.7974,-0.7987,-0.7972,-0.7972,-0.7964,-0.7964,-0.7922,-0.7961,-0.7961,-0.7961,-0.7961,0,-0.8096,-0.8079,-0.8078,-0.8066,-0.8047,-0.8048,-0.8029,-0.8025,-0.8018,-0.8005,-0.8009,-0.7997,-0.7997,-0.7984,-0.7983,-0.7964,-0.7961,-0.7959,-0.7959,-0.7958,-0.7958,-0.7952,-0.7954,-0.796,-0.796,-0.7961,-0.7961,0,-0.8066,-0.8064,-0.8043,-0.8036,-0.8034,-0.802,-0.8013,-0.8001,-0.7999,-0.7983,-0.7979,-0.7975,-0.7961,-0.7959,-0.7942,-0.7941,-0.7918,-0.792,-0.792,-0.792,-0.7905,-0.7906,-0.7857,-0.785,-0.7894,-0.7894,-0.7894,0,-0.8045,-0.8031,-0.8023,-0.8014,-0.8009,-0.7996,-0.7988,-0.7988,-0.798,-0.7969,-0.7958,-0.7944,-0.7933,-0.7909,-0.7905,-0.7892,-0.7893,-0.7877,-0.7891,-0.7891,-0.7892,-0.7892,-0.789,-0.7874,-0.7873,-0.7873,-0.7873,0,-0.8007,-0.8007,-0.7995,-0.7983,-0.7973,-0.7964,-0.7955,-0.7948,-0.7947,-0.7937,-0.7922,-0.7913,-0.7896,-0.7882,-0.7869,-0.7864,-0.7868,-0.7868,-0.7864,-0.7862,-0.7863,-0.7861,-0.7912,-0.7869,-0.787,-0.787,-0.787,-0.787,-0.798,-0.7968,-0.796,-0.7947,-0.794,-0.7932,-0.792,-0.7917,-0.7904,-0.789,-0.7891,-0.7875,-0.7866,-0.7849,-0.7843,-0.783,-0.7835,-0.7829,-0.7828,-0.7826,-0.7824,-0.7866,-0.7828,-0.7828,-0.7828,-0.7828,-0.7828,0,-0.7942,-0.7937,-0.7925,-0.7912,-0.7901,-0.7907,-0.7897,-0.7887,-0.7873,-0.7865,-0.7853,-0.7836,-0.7822,-0.7817,-0.7803,-0.7794,-0.7795,-0.779,-0.779,-0.7789,-0.782,-0.7825,-0.7789,-0.7789,-0.7789,-0.7789,-0.7789,-0.7789,-0.7921,-0.7901,-0.79,-0.7877,-0.7872,-0.7856,-0.785,-0.7842,-0.7835,-0.7816,-0.7804,-0.7801,-0.7794,-0.778,-0.7767,-0.7766,-0.776,-0.7754,-0.7754,-0.7783,-0.7787,-0.779,-0.7795,-0.7753,-0.7753,-0.7723,-0.7723,-0.7723]},{"header":{"parameterUnit":"m.s-1","parameterCategory":1,"la1":30.2991,"la2":30.254,"lo1":-89.0895,"lo2":-89.0444,"dy":0.0017,"dx":0.0017,"nx":28,"ny":28,"refTime":"2024-03-26T03:00:00:Z","depth":0,"parameterNumber":3,"parameterNumberName":"V-component_of_WINDS"},"data":[0,0,0,0,0,0,0,0,0,0,0,0,0,0,0,0,0,0,0,0,0,0,0,0,0,0,0,0,0,0,0,0,0,0,0,0,0,0,0,0,0,0,0,0,0,0,0,0,0,0,0,0,0,0,0,0,0,0,-1.7476,-1.7477,0,-1.7577,-1.7578,-1.7579,-1.7581,-1.758,-1.7578,-1.7577,-1.7679,-1.7683,-1.7687,0,0,0,0,0,0,0,0,0,0,0,0,0,-1.7283,-1.7286,-1.7476,-1.7477,-1.7479,-1.7577,-1.7578,-1.758,-1.7581,-1.758,-1.7578,-1.7577,-1.7678,-1.7683,-1.7687,0,0,0,0,0,0,0,0,0,0,0,0,0,-1.7373,-1.7288,-1.7476,-1.7491,-1.7494,-1.7577,-1.7578,-1.758,-1.7582,-1.758,-1.7578,-1.7576,-1.7677,-1.7682,-1.7688,-1.7762,0,0,-1.7706,-1.7708,0,0,0,0,0,0,0,0,-1.7368,-1.7381,-1.7488,-1.749,-1.7493,-1.7564,-1.7547,-1.7641,-1.7582,-1.7548,-1.7577,-1.7575,-1.7643,-1.7651,-1.7674,-1.7767,-1.7771,-1.7706,-1.771,-1.7712,-1.7714,0,0,0,0,0,0,0,-1.7362,-1.7376,-1.7516,-1.7489,-1.7493,-1.7492,-1.7503,-1.7565,-1.7605,-1.7551,-1.7551,-1.7563,-1.7644,-1.7668,-1.7677,-1.7772,-1.7706,-1.7711,-1.7715,-1.7717,-1.793,-1.7932,0,0,0,0,0,0,-1.7353,-1.7371,-1.7513,-1.7519,-1.7425,-1.7497,-1.751,-1.7543,-1.7604,-1.7611,-1.7565,-1.7563,-1.7659,-1.767,-1.768,-1.7771,-1.7712,-1.7718,-1.7721,-1.7928,-1.7931,-1.7933,0,0,0,0,0,0,-1.7349,-1.7366,-1.7509,-1.7445,-1.7463,-1.7503,-1.7541,-1.7546,-1.7571,-1.7615,-1.7621,-1.7583,-1.7658,-1.7672,-1.7742,-1.7774,-1.772,-1.7726,-1.7925,-1.7929,-1.7932,-1.7952,0,0,0,0,0,0,-1.7343,-1.7364,-1.7393,-1.7446,-1.7467,-1.7569,-1.7543,-1.755,-1.7582,-1.758,-1.7633,-1.764,-1.7658,-1.7733,-1.7747,-1.7781,-1.773,-1.7923,-1.7927,-1.7931,-1.7949,-1.7956,-1.7962,0,0,0,0,0,-1.7336,-1.7395,-1.7395,-1.7412,-1.7504,-1.7571,-1.7583,-1.7602,-1.7584,-1.7613,-1.7641,-1.7639,-1.7768,-1.774,-1.7756,-1.7793,-1.7921,-1.7926,-1.793,-1.7946,-1.7955,-1.7962,0,0,0,0,0,0,-1.7344,-1.7402,-1.7402,-1.748,-1.752,-1.7571,-1.7609,-1.7611,-1.7657,-1.7654,-1.7675,-1.7687,-1.7756,-1.7781,-1.7749,-1.7867,-1.7842,-1.7851,-1.7849,-1.7857,-1.7863,-1.7856,-1.7735,0,0,0,0,0,-1.7355,-1.7405,-1.7452,-1.7516,-1.7537,-1.7569,-1.7599,-1.761,-1.7653,-1.767,-1.7703,-1.7744,-1.7794,-1.7827,-1.7875,-1.7952,-1.7964,-1.7985,-1.7991,-1.7997,-1.8004,-1.8046,-1.8056,-1.7949,-1.7949,-1.7949,0,0,-1.7378,-1.7415,-1.7446,-1.7519,-1.7552,-1.7603,-1.7584,-1.7638,-1.7676,-1.7678,-1.7747,-1.7772,-1.7819,-1.7893,-1.7927,-1.7916,-1.8036,-1.8003,-1.8006,-1.8011,-1.8052,-1.8062,-1.8071,-1.7952,-1.7952,-1.7951,0,0,-1.7446,-1.7479,-1.7536,-1.7569,-1.762,-1.7641,-1.7654,-1.7705,-1.7722,-1.779,-1.7793,-1.7838,-1.7923,-1.7957,-1.7985,-1.8065,-1.8065,-1.808,-1.8114,-1.8155,-1.8164,-1.8171,-1.82,-1.821,-1.8087,-1.8087,-1.8087,0,-1.7468,-1.7546,-1.7565,-1.762,-1.7652,-1.7656,-1.7713,-1.7744,-1.7808,-1.7829,-1.7816,-1.7923,-1.7955,-1.8037,-1.8056,-1.8079,-1.8095,-1.8074,-1.8161,-1.8169,-1.8176,-1.8204,-1.8214,-1.8088,-1.8088,-1.8088,-1.8088,0,-1.757,-1.7624,-1.7663,-1.7725,-1.7761,-1.7817,-1.7844,-1.7878,-1.7886,-1.7908,-1.7977,-1.8016,-1.8072,-1.8092,-1.81,-1.8175,-1.8166,-1.8156,-1.8132,-1.8188,-1.8214,-1.8225,-1.8091,-1.809,-1.809,-1.8089,0,0,-1.7647,-1.7718,-1.7732,-1.776,-1.7816,-1.7857,-1.7913,-1.7968,-1.7997,-1.804,-1.8087,-1.8159,-1.815,-1.8182,-1.8193,-1.8229,-1.829,-1.8215,-1.8217,-1.8228,-1.8375,-1.8383,-1.8395,-1.829,-1.8292,-1.8293,-1.8371,0,-1.7721,-1.7822,-1.784,-1.7927,-1.7977,-1.7981,-1.8029,-1.8068,-1.809,-1.8134,-1.8158,-1.8209,-1.8193,-1.8213,-1.8249,-1.8275,-1.832,-1.827,-1.8334,-1.8336,-1.8323,-1.8408,-1.8417,-1.8488,-1.8381,-1.8383,-1.8384,0,-1.7822,-1.7868,-1.796,-1.8009,-1.803,-1.8073,-1.8125,-1.8168,-1.8212,-1.8225,-1.826,-1.8268,-1.8325,-1.8297,-1.8376,-1.8341,-1.8368,-1.8385,-1.8388,-1.8396,-1.8364,-1.8419,-1.8511,-1.8522,-1.8401,-1.8399,-1.8398,0,-1.787,-1.7954,-1.8021,-1.8044,-1.8102,-1.8133,-1.8158,-1.82,-1.8232,-1.8276,-1.8297,-1.8348,-1.8376,-1.8415,-1.8435,-1.8413,-1.8512,-1.8486,-1.8525,-1.8524,-1.8547,-1.8545,-1.8646,-1.8562,-1.8562,-1.8562,-1.8562,0,-1.7951,-1.8008,-1.8043,-1.8084,-1.8147,-1.8167,-1.8228,-1.8253,-1.829,-1.8335,-1.834,-1.8382,-1.8406,-1.8452,-1.8468,-1.8531,-1.8543,-1.8555,-1.8559,-1.8555,-1.8554,-1.8574,-1.857,-1.8565,-1.8564,-1.8564,-1.8563,0,-1.8016,-1.8042,-1.8114,-1.8163,-1.8177,-1.8221,-1.8262,-1.8302,-1.8323,-1.838,-1.8394,-1.8427,-1.8481,-1.8505,-1.857,-1.8581,-1.8653,-1.8653,-1.8639,-1.864,-1.8678,-1.8674,-1.8796,-1.8813,-1.8717,-1.8718,-1.8719,0,-1.8067,-1.8111,-1.8164,-1.8195,-1.8222,-1.8271,-1.8304,-1.8324,-1.8358,-1.8411,-1.8443,-1.8497,-1.8541,-1.8626,-1.8656,-1.8706,-1.8708,-1.8747,-1.8715,-1.871,-1.8709,-1.8707,-1.8711,-1.8753,-1.8754,-1.8754,-1.8755,0,-1.8155,-1.8166,-1.8213,-1.8265,-1.8304,-1.8345,-1.8386,-1.841,-1.8437,-1.8475,-1.853,-1.8564,-1.8631,-1.8684,-1.8736,-1.8761,-1.8763,-1.8764,-1.8776,-1.8774,-1.8764,-1.877,-1.8655,-1.8762,-1.8761,-1.8761,-1.876,-1.876,-1.8215,-1.8254,-1.8298,-1.835,-1.8383,-1.8421,-1.846,-1.8486,-1.8533,-1.859,-1.8598,-1.8657,-1.8698,-1.8768,-1.8795,-1.8841,-1.8831,-1.8848,-1.8853,-1.8857,-1.8859,-1.8756,-1.885,-1.885,-1.885,-1.885,-1.885,0,-1.8304,-1.8333,-1.838,-1.8437,-1.8478,-1.8476,-1.8521,-1.8555,-1.8607,-1.8645,-1.8689,-1.8752,-1.8803,-1.8836,-1.8888,-1.8918,-1.892,-1.8931,-1.8929,-1.8935,-1.8865,-1.885,-1.8928,-1.8928,-1.8928,-1.8928,-1.8928,-1.8928,-1.8356,-1.8422,-1.8437,-1.8519,-1.8546,-1.8604,-1.863,-1.8664,-1.8696,-1.8766,-1.8809,-1.883,-1.8866,-1.8921,-1.8967,-1.8976,-1.8995,-1.9006,-1.9014,-1.8948,-1.894,-1.8932,-1.8918,-1.901,-1.901,-1.9081,-1.9081,-1.9082]}]]